RH
99 100 100 100 100 100 100 99 99 99 97 100 90 90 92 100 100 100 99 97 92 86 81 77 77 75 78 74 66 58 52 49 50 47 53 57 58 65 66 67 65 66 68
99 100 100 100 100 100 100 100 99 100 99 100 100 94 87 100 100 100 99 98 96 90 85 82 82 81 79 74 68 63 59 55 51 49 46 61 62 63 65 64 66 68 70
98 100 99 100 100 100 100 100 100 100 100 99 100 99 100 98 100 100 99 99 98 96 90 88 85 85 83 80 73 68 66 59 58 53 52 58 65 65 66 64 64 68 74
97 98 99 100 100 100 98 92 100 100 100 97 100 95 96 96 100 100 100 99 99 99 97 94 91 91 87 84 81 75 73 69 65 69 61 59 60 70 69 72 79 75 75
98 99 100 100 100 100 99 90 89 94 94 98 94 100 97 98 96 98 100 100 99 100 98 100 97 96 92 87 86 84 83 78 77 75 76 71 72 75 78 84 80 84 85
100 98 99 100 97 100 100 100 92 95 90 91 93 99 100 99 98 99 100 100 100 100 100 100 100 100 100 96 91 90 86 87 82 82 80 82 82 80 78 88 88 95 100
97 99 96 97 97 96 100 100 99 98 99 91 95 95 98 100 95 92 99 100 99 100 100 100 100 100 100 100 99 96 94 94 88 90 89 88 87 85 84 91 96 93 91
91 96 97 93 94 95 99 100 99 100 99 100 99 99 93 97 96 93 92 98 96 97 100 100 100 99 100 99 100 100 100 100 100 99 99 95 95 88 86 86 88 92 96
75 81 86 93 91 94 95 99 99 100 100 100 100 100 100 99 95 96 96 94 93 93 98 87 99 100 100 100 100 100 100 100 97 100 98 99 98 96 91 92 99 100 100
64 65 70 81 86 89 96 97 97 97 99 92 99 98 99 99 100 100 98 90 93 93 92 95 91 70 85 92 100 100 100 100 100 100 100 100 100 100 100 97 99 98 100
60 60 64 73 82 84 91 93 96 98 96 98 94 91 96 96 98 98 99 99 99 84 90 99 97 76 68 96 96 88 99 99 100 100 100 100 100 100 100 100 100 100 99
58 59 62 71 85 85 91 88 92 95 94 91 93 92 89 92 96 98 98 100 100 100 96 88 87 85 75 65 88 98 91 92 100 100 100 99 100 100 99 99 100 100 100
60 59 61 68 78 85 88 87 93 86 89 91 90 91 92 93 93 95 97 95 100 100 100 100 98 91 79 66 60 85 84 82 91 92 96 98 99 100 100 100 100 100 100
66 61 62 74 78 82 87 87 86 86 91 90 91 92 92 95 95 96 94 95 93 93 90 90 88 84 76 79 64 59 62 72 95 90 85 89 91 94 97 100 100 100 100
70 67 71 81 85 86 84 85 90 91 91 93 95 94 96 96 93 86 86 91 96 98 99 97 91 86 87 79 65 67 70 64 77 78 71 82 97 100 99 100 100 100 99
76 80 83 89 88 89 87 84 82 89 90 86 88 85 84 87 85 82 89 89 91 93 100 100 95 97 100 95 91 79 74 87 71 94 99 100 100 99 99 100 100 100 100
85 86 89 90 93 90 92 84 93 91 86 84 82 79 75 78 78 79 80 86 89 95 100 100 99 95 92 98 98 96 94 83 86 96 99 99 100 100 100 100 100 100 100
84 84 85 95 97 98 97 94 84 98 94 89 85 86 87 82 76 76 78 91 98 94 96 99 99 94 91 92 92 92 92 93 92 94 98 100 99 99 100 100 100 100 100
86 100 98 100 100 96 100 99 95 84 87 92 94 92 90 93 93 87 83 90 100 100 96 83 79 81 84 83 80 79 83 84 86 99 89 92 97 100 100 100 100 100 100
98 88 93 100 100 99 97 97 96 93 94 95 97 98 96 97 95 94 89 94 100 100 100 100 91 77 75 75 79 83 76 77 78 85 90 86 94 95 100 100 100 100 100
88 94 97 97 95 95 96 98 97 96 95 99 96 95 95 100 99 98 100 100 100 100 100 100 98 93 83 85 92 92 92 93 94 85 86 93 90 100 97 99 98 100 100
86 98 98 93 95 96 94 96 97 96 98 98 97 97 98 100 100 100 100 100 100 100 100 99 100 100 100 98 92 98 99 97 94 84 98 91 91 99 99 100 100 100 100
98 98 92 94 98 98 96 97 99 98 98 99 99 99 100 100 100 100 100 99 99 100 99 100 100 100 99 98 99 99 100 100 99 97 98 100 100 100 100 100 100 100 100
98 97 97 98 98 98 98 99 99 99 100 100 100 99 100 100 100 100 99 95 96 96 99 100 100 100 99 100 100 100 100 100 100 99 100 100 100 100 100 100 100 100 100
96 97 98 98 97 98 98 98 98 98 99 99 100 99 100 100 100 100 100 99 99 99 99 100 100 100 100 99 99 100 99 99 100 100 100 100 100 100 100 100 100 100 100
96 98 98 98 97 98 98 98 98 98 98 98 98 98 99 98 99 100 99 99 98 99 99 100 100 98 99 100 100 100 100 99 100 100 100 100 100 100 100 100 100 100 100
Wind_Speed
40 35 36 42 41 36 38 28 36 13 7 13 35 41 39 40 42 43 42 42 45 45 44 42 43 43 37 36 39 36 37 35 21 16 31 39 34 42 35 40 39 40 41
37 41 40 35 39 44 40 41 36 34 24 14 5 27 34 36 39 44 45 43 45 45 45 42 42 40 40 38 35 38 36 32 32 28 23 32 34 39 38 33 38 37 38
37 41 40 41 41 40 40 40 42 39 37 36 25 9 8 36 43 46 48 45 44 46 46 45 46 41 40 39 39 36 33 36 34 29 27 18 29 30 36 33 32 37 35
37 39 34 40 37 37 38 42 38 37 38 40 34 34 30 23 12 34 48 47 45 43 44 44 46 43 43 41 40 39 36 33 34 26 26 27 25 23 33 33 27 33 34
34 36 36 35 34 37 35 37 35 36 37 37 38 31 34 36 37 23 8 40 45 44 45 45 48 46 47 47 40 41 35 33 28 28 24 25 26 24 27 28 28 30 31
31 30 30 26 34 28 31 31 33 34 33 33 34 31 29 31 30 35 26 2 22 40 37 41 43 47 46 48 48 43 42 37 36 32 30 27 31 31 32 28 29 17 8
29 29 25 26 22 30 24 26 28 27 25 32 27 27 26 24 29 34 30 25 15 3 29 35 33 29 43 46 49 49 46 44 44 38 32 32 30 33 36 32 32 30 24
23 23 24 26 25 19 18 20 25 27 25 22 26 25 26 27 33 30 29 21 19 20 14 20 21 23 24 32 37 44 45 45 46 43 35 34 32 37 43 40 41 37 25
22 21 22 22 23 26 28 26 23 17 22 24 20 18 22 25 26 25 21 20 22 22 17 15 14 12 6 30 34 29 37 38 43 46 46 41 38 35 35 39 29 24 16
21 22 21 20 20 21 25 24 23 23 22 25 21 22 17 16 15 15 17 20 19 20 22 19 17 11 4 6 9 14 16 25 36 40 44 41 37 34 34 36 35 28 15
25 20 16 20 19 19 20 22 24 22 18 13 15 16 18 17 17 17 20 21 17 19 18 20 17 13 11 6 6 2 2 4 11 26 34 38 40 32 29 36 38 38 28
26 24 21 18 17 21 20 23 23 22 20 21 20 18 14 16 15 15 15 15 17 17 14 12 14 15 11 9 6 2 3 4 9 8 10 16 23 28 33 37 32 33 35
26 23 23 20 22 20 21 21 20 24 23 22 22 19 18 16 16 15 14 16 16 14 10 10 13 14 11 10 9 8 4 6 9 9 11 13 15 15 16 19 21 23 30
26 24 21 21 26 25 21 21 21 21 21 21 22 22 24 22 18 15 18 17 16 17 18 19 21 20 15 14 13 12 11 9 12 12 12 13 12 15 13 14 16 19 20
25 25 23 22 24 22 22 21 21 22 21 24 23 24 25 24 24 26 25 21 19 17 17 17 20 18 17 18 17 16 16 13 14 15 16 18 15 14 13 14 16 18 15
24 24 24 24 22 20 21 22 22 20 23 23 22 23 28 28 29 26 29 24 22 19 16 13 12 14 14 15 19 18 19 19 17 18 20 21 18 17 15 16 17 20 21
22 22 23 22 21 22 21 21 23 28 23 22 23 25 24 26 25 24 23 23 20 17 14 14 14 16 14 16 17 17 19 22 19 18 19 18 19 18 17 18 19 19 17
23 23 23 22 22 23 22 21 23 21 23 25 25 26 25 23 24 24 23 22 17 13 16 16 17 19 18 17 17 18 17 17 20 21 21 19 17 19 18 18 18 19 18
25 22 24 24 23 24 23 20 20 21 21 23 26 24 23 24 24 22 22 20 17 15 15 18 18 19 20 20 22 20 18 18 18 16 20 19 18 18 20 20 20 21 20
21 23 25 23 24 21 20 20 20 20 21 20 22 24 28 25 21 20 20 19 19 18 19 19 19 20 20 21 23 23 23 23 23 23 24 23 21 21 22 21 21 21 22
23 22 24 21 21 22 22 22 22 21 22 22 21 24 28 26 23 21 19 19 20 21 20 19 20 21 21 21 22 23 22 22 21 21 23 25 24 22 25 25 24 23 22
22 21 21 22 22 21 22 22 22 23 23 23 23 24 29 26 23 23 22 20 21 21 21 22 24 25 24 25 24 22 24 24 24 23 23 25 26 25 19 23 23 23 24
22 19 21 22 22 21 21 22 22 22 24 23 23 25 27 24 24 23 24 26 26 24 23 23 23 24 25 26 27 28 25 23 25 25 24 25 24 24 21 22 23 22 23
18 19 20 20 19 20 20 21 21 22 23 23 23 25 25 26 25 24 23 23 22 22 22 21 21 22 23 24 25 24 24 26 26 27 27 27 25 25 24 23 24 24 23
20 19 19 19 20 20 20 20 20 21 23 23 24 25 26 27 27 27 26 25 22 20 20 20 20 20 20 21 21 23 24 23 25 26 26 26 26 25 25 23 22 23 23
20 20 19 19 19 20 20 20 20 21 22 23 24 25 25 26 25 26 27 26 25 23 22 21 20 18 16 17 18 18 18 20 22 23 24 24 26 25 25 24 26 24 26
Wind_Direction
18 25 36 42 44 43 40 34 32 14 347 284 216 198 196 194 194 194 196 197 200 203 208 210 210 212 213 215 216 215 219 222 230 234 217 217 220 214 217 220 226 228 232
11 22 24 42 44 43 36 34 39 29 36 21 324 227 218 205 203 203 202 201 201 204 207 211 215 214 214 214 214 218 219 213 216 226 227 209 215 215 215 217 221 227 232
15 22 15 25 36 40 35 33 36 32 35 34 33 30 8 219 208 210 206 204 205 205 207 209 216 215 215 213 215 216 216 216 218 218 223 211 206 212 213 215 220 221 227
16 25 14 21 22 29 36 40 34 34 35 38 31 34 34 21 317 210 208 209 204 206 207 208 212 211 214 212 214 216 214 215 217 214 220 223 219 206 212 211 210 214 218
15 19 16 16 17 25 26 37 34 36 34 35 35 26 31 31 14 20 249 212 212 209 209 208 212 212 213 214 212 213 212 209 208 211 213 216 218 214 212 208 207 208 217
19 14 9 9 20 10 22 24 29 25 31 29 31 21 15 26 20 31 23 154 207 211 206 210 212 211 211 213 214 216 214 210 213 211 213 213 213 211 213 205 201 189 192
18 8 9 10 16 15 10 17 22 21 18 27 16 18 8 4 23 26 15 18 66 167 212 214 209 211 213 216 217 217 216 216 215 209 207 210 206 204 205 197 197 201 207
8 3 2 6 8 6 7 8 13 14 23 10 8 3 12 355 19 24 7 11 35 47 44 149 184 193 207 216 217 219 219 224 223 223 221 214 214 211 213 213 210 212 221
3 2 3 2 359 6 5 4 3 355 7 14 8 2 10 5 18 8 346 359 29 48 19 51 92 119 118 216 208 217 223 225 229 230 228 230 223 218 224 222 217 208 211
1 354 359 1 360 3 359 356 354 357 1 5 354 14 1 4 15 13 358 360 4 12 19 23 36 57 18 354 180 192 200 214 221 225 224 224 226 225 227 231 219 209 210
349 348 359 357 354 357 354 353 352 353 349 341 359 3 5 2 15 3 4 7 350 4 12 0 11 0 22 9 336 147 155 200 218 224 224 228 232 227 217 217 219 220 208
346 350 353 5 6 349 354 349 345 342 348 349 351 356 0 354 357 355 3 5 4 8 356 341 326 332 342 335 325 239 214 252 261 233 220 229 235 236 235 234 228 224 226
344 345 347 350 358 353 348 346 345 349 346 344 348 338 332 347 352 358 16 6 354 349 350 3 345 323 317 310 302 313 241 252 253 248 239 234 237 243 242 241 241 237 235
337 339 348 354 351 345 347 346 345 343 338 337 333 331 330 333 341 340 337 332 319 312 312 310 303 305 308 301 294 291 291 278 271 268 266 267 261 255 247 246 238 231 226
333 340 346 349 343 337 338 337 336 331 330 327 325 322 322 320 317 320 319 319 313 306 301 302 299 299 301 296 289 287 291 282 277 274 269 260 263 265 254 250 239 225 206
337 340 340 337 333 329 326 328 333 326 328 330 324 324 320 314 318 321 320 322 314 308 299 281 277 275 270 278 279 279 280 277 265 264 270 265 253 246 246 241 234 227 219
339 336 333 333 333 330 326 330 328 326 329 330 330 327 327 324 323 322 321 320 313 306 283 272 268 264 263 256 251 250 252 262 263 254 250 255 257 252 238 226 225 227 221
337 338 336 326 324 323 319 317 327 317 323 326 325 323 320 321 326 324 320 315 309 293 277 262 262 263 263 258 255 251 252 254 252 251 246 249 244 236 230 231 229 217 211
336 330 330 325 320 318 319 324 319 325 323 316 319 324 328 323 317 322 323 311 298 286 283 288 286 280 275 272 269 266 265 262 261 265 250 248 243 244 239 233 233 231 214
332 332 329 322 318 318 322 319 319 324 323 323 321 325 325 326 323 317 313 307 293 286 284 281 283 283 278 276 273 265 266 261 262 260 258 251 247 248 241 239 232 217 209
333 326 327 323 325 325 325 325 325 326 325 324 328 328 327 323 317 316 309 304 303 292 288 287 287 289 281 281 273 262 258 254 250 256 255 248 248 242 242 237 235 230 217
327 326 332 330 325 329 333 331 332 331 330 333 334 336 335 330 322 318 318 314 309 306 305 294 287 285 279 275 274 268 253 249 255 262 253 249 246 244 232 230 222 210 200
322 328 331 328 328 331 333 335 335 337 335 337 341 342 338 333 331 327 324 326 326 319 320 309 296 286 281 279 273 269 265 258 250 259 252 243 240 238 227 219 211 201 192
338 335 332 333 341 338 336 335 338 339 338 340 348 348 341 339 337 336 335 337 332 327 323 319 309 298 289 286 283 277 270 265 265 264 257 250 242 238 229 218 211 204 197
350 347 345 348 346 340 339 338 341 343 345 349 350 349 345 345 344 344 346 346 343 340 335 329 323 311 300 291 282 275 272 269 265 261 258 253 245 240 228 217 207 199 190
356 353 355 353 352 348 345 345 346 347 348 351 351 350 348 348 347 352 356 356 356 352 348 345 335 326 315 303 290 279 268 262 261 257 254 248 237 228 220 211 203 193 185